• In France
  • List of Countries
  • For 7 days
  • Water Temperature
  • Satellite Maps
  • Weather Map
  • Weather Widgets
  • user-avatar
    Login

    Hourly Weather Djelfa

    Today, 25 September, Tuesday

    Time Temperature Precipitation Wind Pressure Humidity
    00:00 +24°C° 0 mm 2 mps 670 mmHg 36%
    01:00 +24°C° 0 mm 2 mps 669 mmHg 38%
    02:00 +23°C° 0 mm 2 mps 669 mmHg 39%
    03:00 +23°C° 0 mm 1 mps 669 mmHg 40%
    04:00 +22°C° 0 mm 1 mps 669 mmHg 41%
    05:00 +22°C° 0 mm 1 mps 669 mmHg 43%
    06:00 +22°C° 0 mm 1 mps 669 mmHg 43%
    07:00 +23°C° 0 mm 1 mps 669 mmHg 39%
    08:00 +25°C° 0 mm 1 mps 670 mmHg 35%
    09:00 +26°C° 0 mm 1 mps 671 mmHg 30%
    10:00 +27°C° 0 mm 1 mps 671 mmHg 29%
    11:00 +28°C° 0 mm 1 mps 671 mmHg 27%
    12:00 +29°C° 0 mm 1 mps 670 mmHg 26%
    13:00 +29°C° 0 mm 2 mps 670 mmHg 25%
    14:00 +29°C° 0 mm 2 mps 670 mmHg 25%
    15:00 +29°C° 0 mm 2 mps 670 mmHg 24%
    16:00 +29°C° 0 mm 3 mps 670 mmHg 26%
    17:00 +28°C° 0 mm 3 mps 670 mmHg 27%
    18:00 +28°C° 0 mm 3 mps 670 mmHg 28%
    19:00 +27°C° 0 mm 4 mps 670 mmHg 31%
    20:00 +27°C° 0 mm 4 mps 670 mmHg 34%
    21:00 +26°C° 0 mm 4 mps 670 mmHg 37%
    22:00 +25°C° 0 mm 4 mps 670 mmHg 40%
    23:00 +24°C° 0 mm 3 mps 670 mmHg 44%

    Tomorrow, 26 September, Wednesday

    Time Temperature Precipitation Wind Pressure Humidity
    00:00 +24°C° 0 mm 3 mps 670 mmHg 47%
    01:00 +23°C° 0 mm 2 mps 670 mmHg 51%
    02:00 +21°C° 0 mm 2 mps 670 mmHg 54%
    03:00 +22°C° 0 mm 1 mps 669 mmHg 58%
    04:00 +21°C° 0.1 mm 1 mps 669 mmHg 59%
    05:00 +21°C° 0.1 mm 1 mps 670 mmHg 61%
    06:00 +21°C° 0.1 mm 1 mps 670 mmHg 63%
    07:00 +21°C° 0.1 mm 2 mps 670 mmHg 59%
    08:00 +23°C° 0.1 mm 2 mps 671 mmHg 54%
    09:00 +24°C° 0.1 mm 2 mps 671 mmHg 50%
    10:00 +24°C° 0.2 mm 2 mps 671 mmHg 47%
    11:00 +25°C° 0.2 mm 2 mps 671 mmHg 43%
    12:00 +26°C° 0.2 mm 2 mps 671 mmHg 40%
    13:00 +26°C° 0.1 mm 2 mps 671 mmHg 40%
    14:00 +26°C° 0.1 mm 2 mps 671 mmHg 39%
    15:00 +26°C° 0.1 mm 2 mps 670 mmHg 39%
    16:00 +26°C° 0.8 mm 2 mps 670 mmHg 42%
    17:00 +25°C° 0.8 mm 3 mps 670 mmHg 45%
    18:00 +24°C° 0.8 mm 3 mps 670 mmHg 48%
    19:00 +24°C° 0.5 mm 3 mps 671 mmHg 51%
    20:00 +22°C° 0.5 mm 3 mps 671 mmHg 54%
    21:00 +22°C° 0.5 mm 4 mps 671 mmHg 56%
    22:00 +22°C° 0.1 mm 4 mps 671 mmHg 57%
    23:00 +21°C° 0.1 mm 3 mps 671 mmHg 58%

    Day after tomorrow, 27 September, Thursday

    Time Temperature Precipitation Wind Pressure Humidity
    00:00 +21°C° 0.1 mm 3 mps 671 mmHg 58%
    01:00 +21°C° 0.1 mm 4 mps 671 mmHg 61%
    02:00 +20°C° 0.1 mm 5 mps 671 mmHg 63%
    03:00 +20°C° 0.1 mm 6 mps 671 mmHg 66%
    04:00 +19°C° 0 mm 6 mps 671 mmHg 69%
    05:00 +17°C° 0 mm 6 mps 671 mmHg 73%
    06:00 +17°C° 0 mm 6 mps 671 mmHg 76%
    07:00 +19°C° 0 mm 5 mps 671 mmHg 72%
    08:00 +19°C° 0 mm 5 mps 672 mmHg 69%
    09:00 +20°C° 0 mm 5 mps 672 mmHg 65%
    10:00 +21°C° 0 mm 4 mps 672 mmHg 61%
    11:00 +22°C° 0 mm 3 mps 672 mmHg 57%
    12:00 +22°C° 0 mm 3 mps 672 mmHg 53%
    13:00 +24°C° 0 mm 3 mps 671 mmHg 51%
    14:00 +24°C° 0 mm 3 mps 671 mmHg 48%
    15:00 +24°C° 0 mm 3 mps 670 mmHg 46%
    16:00 +24°C° 0 mm 3 mps 670 mmHg 46%
    17:00 +24°C° 0 mm 3 mps 671 mmHg 46%
    18:00 +24°C° 0 mm 3 mps 671 mmHg 46%
    19:00 +22°C° 0 mm 3 mps 671 mmHg 48%
    20:00 +22°C° 0 mm 3 mps 671 mmHg 50%
    21:00 +21°C° 0 mm 2 mps 671 mmHg 52%
    22:00 +21°C° 0 mm 2 mps 670 mmHg 53%
    23:00 +20°C° 0 mm 2 mps 670 mmHg 55%

    28 September, Friday

    Time Temperature Precipitation Wind Pressure Humidity
    00:00 +20°C° 0 mm 2 mps 669 mmHg 56%
    01:00 +19°C° 0 mm 2 mps 669 mmHg 57%
    02:00 +19°C° 0 mm 2 mps 669 mmHg 58%
    03:00 +19°C° 0 mm 1 mps 668 mmHg 60%
    04:00 +19°C° 0 mm 1 mps 668 mmHg 61%
    05:00 +19°C° 0 mm 1 mps 668 mmHg 62%
    06:00 +19°C° 0 mm 1 mps 668 mmHg 63%
    07:00 +19°C° 0 mm 2 mps 668 mmHg 59%
    08:00 +20°C° 0 mm 2 mps 669 mmHg 55%
    09:00 +21°C° 0 mm 2 mps 669 mmHg 51%
    10:00 +23°C° 0 mm 2 mps 669 mmHg 47%
    11:00 +24°C° 0 mm 2 mps 669 mmHg 43%
    12:00 +25°C° 0 mm 2 mps 669 mmHg 39%
    13:00 +25°C° 0 mm 2 mps 668 mmHg 37%
    14:00 +26°C° 0 mm 2 mps 668 mmHg 35%
    15:00 +26°C° 0 mm 2 mps 667 mmHg 33%
    16:00 +26°C° 0 mm 3 mps 667 mmHg 34%
    17:00 +26°C° 0 mm 3 mps 667 mmHg 34%
    18:00 +25°C° 0 mm 3 mps 667 mmHg 35%
    19:00 +25°C° 0 mm 3 mps 667 mmHg 37%
    20:00 +24°C° 0 mm 3 mps 667 mmHg 38%
    21:00 +22°C° 0 mm 3 mps 667 mmHg 39%
    22:00 +22°C° 0 mm 3 mps 667 mmHg 40%
    23:00 +21°C° 0 mm 3 mps 667 mmHg 40%

    29 September, Saturday

    Time Temperature Precipitation Wind Pressure Humidity
    00:00 +21°C° 0 mm 2 mps 666 mmHg 40%
    01:00 +20°C° 0 mm 2 mps 666 mmHg 42%
    02:00 +20°C° 0 mm 2 mps 666 mmHg 43%
    03:00 +20°C° 0 mm 1 mps 665 mmHg 44%
    04:00 +20°C° 0 mm 1 mps 665 mmHg 46%
    05:00 +20°C° 0 mm 1 mps 665 mmHg 47%
    06:00 +19°C° 0 mm 1 mps 665 mmHg 49%
    07:00 +21°C° 0 mm 1 mps 666 mmHg 45%
    08:00 +22°C° 0 mm 1 mps 666 mmHg 41%
    09:00 +24°C° 0 mm 1 mps 667 mmHg 38%
    10:00 +24°C° 0 mm 1 mps 667 mmHg 36%
    11:00 +25°C° 0 mm 1 mps 667 mmHg 34%
    12:00 +26°C° 0 mm 1 mps 667 mmHg 33%
    13:00 +26°C° 0 mm 1 mps 666 mmHg 32%
    14:00 +27°C° 0 mm 1 mps 666 mmHg 31%
    15:00 +27°C° 0 mm 1 mps 666 mmHg 30%
    16:00 +27°C° 0 mm 1 mps 666 mmHg 30%
    17:00 +27°C° 0 mm 1 mps 666 mmHg 30%
    18:00 +27°C° 0 mm 2 mps 666 mmHg 31%
    19:00 +26°C° 0 mm 2 mps 666 mmHg 32%
    20:00 +26°C° 0 mm 2 mps 667 mmHg 33%
    21:00 +25°C° 0 mm 2 mps 667 mmHg 34%
    22:00 +25°C° 0 mm 2 mps 667 mmHg 35%
    23:00 +24°C° 0 mm 2 mps 666 mmHg 36%

    30 September, Sunday

    Time Temperature Precipitation Wind Pressure Humidity
    00:00 +24°C° 0 mm 2 mps 666 mmHg 37%
    01:00 +23°C° 0 mm 2 mps 666 mmHg 39%
    02:00 +21°C° 0 mm 2 mps 666 mmHg 40%
    03:00 +22°C° 0 mm 1 mps 665 mmHg 41%
    04:00 +22°C° 0 mm 1 mps 665 mmHg 42%
    05:00 +21°C° 0 mm 1 mps 665 mmHg 43%
    06:00 +21°C° 0 mm 1 mps 665 mmHg 43%
    07:00 +21°C° 0 mm 2 mps 666 mmHg 40%
    08:00 +24°C° 0 mm 2 mps 666 mmHg 36%
    09:00 +25°C° 0 mm 2 mps 667 mmHg 32%
    10:00 +26°C° 0 mm 2 mps 667 mmHg 31%
    11:00 +27°C° 0 mm 2 mps 667 mmHg 29%
    12:00 +27°C° 0 mm 2 mps 667 mmHg 27%
    13:00 +27°C° 0 mm 2 mps 666 mmHg 27%
    14:00 +27°C° 0 mm 2 mps 666 mmHg 26%
    15:00 +27°C° 0 mm 1 mps 666 mmHg 26%
    16:00 +27°C° 0 mm 1 mps 666 mmHg 27%
    17:00 +27°C° 0 mm 1 mps 666 mmHg 28%
    18:00 +26°C° 0 mm 1 mps 666 mmHg 29%
    19:00 +26°C° 0 mm 1 mps 666 mmHg 29%
    20:00 +26°C° 0 mm 2 mps 666 mmHg 30%
    21:00 +25°C° 0 mm 2 mps 667 mmHg 31%
    22:00 +25°C° 0 mm 2 mps 666 mmHg 31%
    23:00 +24°C° 0 mm 3 mps 666 mmHg 31%
    Show more